Time,TemperatureF,DewpointF,PressureIn,WindDirection,WindDirectionDegrees,WindSpeedMPH,WindSpeedGustMPH,Humidity,HourlyPrecipIn,Conditions,Clouds,dailyrainin,SoftwareType,DateUTC
2013-09-27 01:43:00,42.0,42.0,30.10,North,6,0.0,0.0,99,0.00,,,0.01,,2013-09-27 06:43:00,
2013-09-27 01:52:00,43.0,43.0,30.11,North,6,0.0,0.0,99,0.00,,,0.01,,2013-09-27 06:52:00,
2013-09-27 02:12:00,44.0,44.0,30.11,North,6,0.0,0.0,99,0.00,,,0.01,,2013-09-27 07:12:00,
2013-09-27 02:22:00,45.0,45.0,30.11,North,6,0.0,0.0,99,0.00,,,0.01,,2013-09-27 07:22:00,
2013-09-27 02:43:00,45.0,45.0,30.12,North,6,0.0,0.0,99,0.00,,,0.01,,2013-09-27 07:43:00,
2013-09-27 02:53:00,45.0,45.0,30.11,North,6,0.0,0.0,99,0.00,,,0.00,,2013-09-27 07:53:00,
2013-09-27 03:11:00,45.0,45.0,30.11,North,6,0.0,0.0,99,0.00,,,0.00,,2013-09-27 08:11:00,
2013-09-27 03:22:00,46.0,46.0,30.11,North,6,0.0,0.0,99,0.00,,,0.00,,2013-09-27 08:22:00,
2013-09-27 03:42:00,46.0,46.0,30.12,North,6,0.0,0.0,99,0.00,,,0.00,,2013-09-27 08:42:00,
2013-09-27 03:52:00,46.0,46.0,30.12,North,6,0.0,0.0,99,0.00,,,0.00,,2013-09-27 08:52:00,
2013-09-27 04:12:00,46.0,46.0,30.12,North,6,0.0,0.0,99,0.00,,,0.00,,2013-09-27 09:12:00,
2013-09-27 04:22:00,46.0,46.0,30.11,North,6,0.0,0.0,99,0.00,,,0.00,,2013-09-27 09:22:00,
2013-09-27 04:44:00,45.0,45.0,30.12,North,6,0.0,0.0,99,0.00,,,0.00,,2013-09-27 09:44:00,
2013-09-27 04:53:00,46.0,46.0,30.12,North,7,0.0,0.0,99,0.00,,,0.00,,2013-09-27 09:53:00,
2013-09-27 05:13:00,45.0,45.0,30.11,North,6,0.0,0.0,99,0.00,,,0.00,,2013-09-27 10:13:00,
2013-09-27 05:23:00,46.0,46.0,30.12,North,7,0.0,0.0,99,0.00,,,0.00,,2013-09-27 10:23:00,
2013-09-27 05:42:00,46.0,46.0,30.12,North,7,0.0,0.0,99,0.00,,,0.00,,2013-09-27 10:42:00,
2013-09-27 05:52:00,46.0,46.0,30.12,NNE,12,0.0,0.0,99,0.00,,,0.00,,2013-09-27 10:52:00,
2013-09-27 06:12:00,46.0,46.0,30.12,NNE,12,0.0,0.0,99,0.00,,,0.00,,2013-09-27 11:12:00,
2013-09-27 06:22:00,46.0,46.0,30.12,NNE,12,0.0,0.0,99,0.00,,,0.00,,2013-09-27 11:22:00,
2013-09-27 06:43:00,46.0,46.0,30.12,NNE,12,0.0,0.0,99,0.00,,,0.00,,2013-09-27 11:43:00,
2013-09-27 06:52:00,46.0,46.0,30.12,NNE,12,0.0,0.0,99,0.00,,,0.00,,2013-09-27 11:52:00,
2013-09-27 07:12:00,45.0,45.0,30.12,NNE,12,0.0,0.0,99,0.00,,,0.00,,2013-09-27 12:12:00,
2013-09-27 07:21:00,45.0,45.0,30.12,NNE,12,0.0,0.0,99,0.00,,,0.00,,2013-09-27 12:21:00,
2013-09-27 07:42:00,45.0,45.0,30.12,NNE,12,0.0,0.0,99,0.00,,,0.00,,2013-09-27 12:42:00,
2013-09-27 07:52:00,45.0,45.0,30.13,NNE,12,0.0,0.0,99,0.00,,,0.00,,2013-09-27 12:52:00,
2013-09-27 08:11:00,45.0,45.0,30.12,NNE,12,0.0,0.0,99,0.00,,,0.00,,2013-09-27 13:11:00,
2013-09-27 08:22:00,46.0,46.0,30.13,NNE,12,0.0,0.0,99,0.00,,,0.00,,2013-09-27 13:22:00,
2013-09-27 08:52:00,48.0,48.0,30.13,East,98,0.0,0.0,100,0.01,,,0.01,,2013-09-27 13:52:00,
2013-09-27 09:11:00,50.0,50.0,30.12,East,99,0.0,0.0,100,0.01,,,0.01,,2013-09-27 14:11:00,
2013-09-27 09:22:00,52.0,52.0,30.12,NW,319,0.0,2.0,100,0.01,,,0.01,,2013-09-27 14:22:00,
2013-09-27 09:52:00,55.0,55.0,30.12,SSE,148,0.0,2.0,100,0.00,,,0.01,,2013-09-27 14:52:00,
2013-09-27 10:11:00,57.0,57.0,30.12,East,91,0.0,2.0,99,0.00,,,0.01,,2013-09-27 15:11:00,
2013-09-27 10:21:00,60.0,57.0,30.12,WNW,302,0.0,3.0,90,0.00,,,0.01,,2013-09-27 15:21:00,
2013-09-27 10:54:00,63.0,57.0,30.11,ENE,57,0.0,3.0,82,0.00,,,0.01,,2013-09-27 15:54:00,
2013-09-27 11:13:00,64.0,57.0,30.11,East,89,1.0,5.0,78,0.00,,,0.01,,2013-09-27 16:13:00,
2013-09-27 11:24:00,64.0,57.0,30.11,East,89,1.0,5.0,78,0.00,,,0.01,,2013-09-27 16:24:00,
2013-09-27 11:53:00,68.0,58.0,30.09,SSE,160,1.0,5.0,71,0.00,,,0.01,,2013-09-27 16:53:00,
2013-09-27 12:13:00,69.0,58.0,30.09,West,259,1.0,7.0,67,0.00,,,0.01,,2013-09-27 17:13:00,
2013-09-27 12:23:00,70.0,58.0,30.09,South,184,2.0,8.0,66,0.00,,,0.01,,2013-09-27 17:23:00,
2013-09-27 12:43:00,71.0,58.0,30.09,ENE,77,1.0,6.0,63,0.00,,,0.01,,2013-09-27 17:43:00,
2013-09-27 12:52:00,72.0,59.0,30.08,NNW,339,1.0,5.0,63,0.00,,,0.01,,2013-09-27 17:52:00,
2013-09-27 13:13:00,73.0,59.0,30.08,NNW,342,1.0,5.0,62,0.00,,,0.01,,2013-09-27 18:13:00,
2013-09-27 13:21:00,73.0,59.0,30.08,NE,41,2.0,6.0,61,0.00,,,0.01,,2013-09-27 18:21:00,
2013-09-27 13:43:00,74.0,60.0,30.07,NNE,33,1.0,4.0,61,0.00,,,0.01,,2013-09-27 18:43:00,
2013-09-27 13:52:00,75.0,59.0,30.06,SW,225,1.0,5.0,57,0.00,,,0.01,,2013-09-27 18:52:00,
2013-09-27 14:12:00,74.0,59.0,30.06,SE,132,1.0,11.0,60,0.00,,,0.01,,2013-09-27 19:12:00,
2013-09-27 14:22:00,75.0,57.0,30.05,WSW,243,2.0,8.0,53,0.00,,,0.01,,2013-09-27 19:22:00,
2013-09-27 14:43:00,75.0,57.0,30.05,ENE,62,2.0,10.0,54,0.00,,,0.01,,2013-09-27 19:43:00,
2013-09-27 14:53:00,74.0,57.0,30.04,NNW,336,1.0,7.0,56,0.00,,,0.01,,2013-09-27 19:53:00,
2013-09-27 15:12:00,75.0,58.0,30.04,NNE,30,2.0,6.0,56,0.00,,,0.01,,2013-09-27 20:12:00,
2013-09-27 15:22:00,75.0,59.0,30.04,SSW,204,1.0,7.0,57,0.00,,,0.01,,2013-09-27 20:22:00,
2013-09-27 15:43:00,74.0,59.0,30.03,NNW,336,1.0,6.0,60,0.00,,,0.01,,2013-09-27 20:43:00,
2013-09-27 15:52:00,74.0,58.0,30.03,NNE,27,2.0,8.0,58,0.00,,,0.01,,2013-09-27 20:52:00,
2013-09-27 16:12:00,74.0,57.0,30.03,SW,224,0.0,6.0,56,0.00,,,0.01,,2013-09-27 21:12:00,
2013-09-27 16:22:00,73.0,58.0,30.02,ENE,75,0.0,3.0,60,0.00,,,0.01,,2013-09-27 21:22:00,
2013-09-27 16:44:00,74.0,58.0,30.02,East,98,1.0,4.0,57,0.00,,,0.01,,2013-09-27 21:44:00,
2013-09-27 16:54:00,73.0,55.0,30.02,ENE,74,0.0,4.0,54,0.00,,,0.01,,2013-09-27 21:54:00,
2013-09-27 17:14:00,72.0,55.0,30.02,NE,56,1.0,5.0,56,0.00,,,0.01,,2013-09-27 22:14:00,
2013-09-27 17:24:00,71.0,56.0,30.02,NW,308,2.0,6.0,59,0.00,,,0.01,,2013-09-27 22:24:00,
2013-09-27 17:43:00,71.0,58.0,30.01,ESE,120,2.0,5.0,63,0.00,,,0.01,,2013-09-27 22:43:00,
2013-09-27 17:53:00,70.0,57.0,30.01,SSE,148,1.0,6.0,63,0.00,,,0.01,,2013-09-27 22:53:00,
2013-09-27 18:12:00,70.0,57.0,30.01,NNW,345,0.0,9.0,64,0.00,,,0.01,,2013-09-27 23:12:00,
2013-09-27 18:22:00,69.0,58.0,30.01,East,79,0.0,2.0,68,0.00,,,0.01,,2013-09-27 23:22:00,
2013-09-27 18:43:00,68.0,57.0,30.01,NE,36,0.0,5.0,68,0.00,,,0.01,,2013-09-27 23:43:00,
2013-09-27 18:53:00,67.0,57.0,30.01,SE,127,1.0,4.0,70,0.00,,,0.01,,2013-09-27 23:53:00,
2013-09-27 19:12:00,65.0,56.0,30.01,ESE,113,1.0,4.0,73,0.00,,,0.01,,2013-09-28 00:12:00,
2013-09-27 19:22:00,64.0,56.0,30.01,North,351,1.0,6.0,75,0.00,,,0.01,,2013-09-28 00:22:00,
2013-09-27 19:42:00,64.0,56.0,30.00,ESE,107,0.0,3.0,76,0.00,,,0.01,,2013-09-28 00:42:00,
2013-09-27 19:52:00,63.0,57.0,30.00,East,100,0.0,4.0,80,0.00,,,0.01,,2013-09-28 00:52:00,
2013-09-27 20:12:00,63.0,57.0,30.01,NNE,29,0.0,6.0,82,0.00,,,0.01,,2013-09-28 01:12:00,
2013-09-27 20:22:00,62.0,57.0,30.02,NE,36,0.0,4.0,83,0.00,,,0.01,,2013-09-28 01:22:00,
2013-09-27 20:42:00,62.0,57.0,30.03,ENE,70,0.0,3.0,83,0.00,,,0.01,,2013-09-28 01:42:00,
2013-09-27 20:52:00,62.0,56.0,30.04,ENE,73,0.0,3.0,80,0.00,,,0.01,,2013-09-28 01:52:00,
2013-09-27 21:12:00,61.0,55.0,30.04,NNE,27,0.0,2.0,81,0.00,,,0.01,,2013-09-28 02:12:00,
2013-09-27 21:22:00,60.0,54.0,30.04,NNW,347,0.0,2.0,81,0.00,,,0.01,,2013-09-28 02:22:00,
2013-09-27 21:42:00,60.0,54.0,30.04,ENE,78,0.0,7.0,82,0.00,,,0.01,,2013-09-28 02:42:00,
2013-09-27 21:53:00,59.0,54.0,30.04,NNW,333,0.0,5.0,82,0.00,,,0.01,,2013-09-28 02:53:00,
2013-09-27 22:12:00,59.0,52.0,30.04,West,260,0.0,3.0,78,0.00,,,0.01,,2013-09-28 03:12:00,
2013-09-27 22:22:00,59.0,52.0,30.03,NW,322,0.0,3.0,77,0.00,,,0.01,,2013-09-28 03:22:00,
2013-09-27 22:45:00,60.0,51.0,30.03,North,350,0.0,2.0,73,0.00,,,0.01,,2013-09-28 03:45:00,
2013-09-27 22:55:00,60.0,50.0,30.03,NNE,26,1.0,3.0,69,0.00,,,0.01,,2013-09-28 03:55:00,
2013-09-27 23:13:00,60.0,49.0,30.03,North,9,0.0,5.0,67,0.00,,,0.01,,2013-09-28 04:13:00,
2013-09-27 23:25:00,59.0,48.0,30.03,NNW,348,0.0,4.0,67,0.00,,,0.01,,2013-09-28 04:25:00,
2013-09-27 23:43:00,59.0,48.0,30.03,NNE,32,0.0,6.0,67,0.00,,,0.01,,2013-09-28 04:43:00,
2013-09-27 23:54:00,59.0,46.0,30.03,South,169,0.0,4.0,63,0.00,,,0.01,,2013-09-28 04:54:00,